Location: North Runcton
(52.7000°N, 0.4333°E)
Time: 20:24:08
(UTC+00:00)

Cosmos 1400 Rocket - Pass Details

Date: 19 May 2025
Orbit: 484 x 519 km, 81.1° (Epoch: 21 June)

Event Time Altitude Azimuth Distance (km) Brightness Sun altitude
Rises 21:07:26 0° 205° (SSW) 2,558 6.0 -8.8°
Reaches altitude 10° 21:09:35 10° 210° (SSW) 1,677 5.1 -9.0°
Maximum altitude 21:13:10 50° 287° (WNW) 631 3.5 -9.3°
Drops below altitude 10° 21:16:45 10° 4° (N) 1,682 6.1 -9.7°
Sets 21:18:55 0° 10° (N) 2,567 6.9 -9.9°
